Location: Barcelona
(41.3830°N, 2.1830°E)
Time: 18:24:28
(UTC+01:00)

ISS - Pass Details

Date: 22 January 2020
Orbit: 415 x 422 km, 51.6° (Epoch: 23 January)

Event Time Altitude Azimuth Distance (km) Brightness Sun altitude
Rises 18:19:31 0° 210° (SSW) 2,356 1.0 -5.2°
Reaches altitude 10° 18:21:45 10° 199° (SSW) 1,496 -0.3 -5.6°
Maximum altitude 18:24:45 30° 136° (SE) 775 -2.6 -6.1°
Drops below altitude 10° 18:27:45 10° 73° (ENE) 1,501 -1.6 -6.6°
Enters shadow 18:28:02 - 71° (ENE) 1,605 -1.5 -6.7°
